This is the latest recevied weather packets stored in our database for station/object W6MAF. If no packets are shown the sender has not sent any weather packets the latest 10 day(s).
| Time | Temp. | Humidity | Pressure | Rain* | Wind** | Luminosity | Snow |
|---|---|---|---|---|---|---|---|
| 1777939217 | 12.22° C | 44% | - | 0 mm | 8.05 m/s, 184° | - | - |
| 1777938919 | 12.22° C | 44% | - | 0 mm | 7.6 m/s, 191° | - | - |
| 1777938621 | 12.22° C | 42% | - | 0 mm | 6.71 m/s, 193° | - | - |
| 1777938324 | 12.78° C | 40% | - | 0 mm | 9.39 m/s, 188° | - | - |
| 1777938027 | 12.78° C | 38% | - | 0 mm | 8.05 m/s, 191° | - | - |
| 1777937726 | 12.78° C | 38% | - | 0 mm | 7.6 m/s, 218° | - | - |
| 1777937427 | 12.78° C | 38% | - | 0 mm | 6.71 m/s, 200° | - | - |
| 1777936832 | 12.78° C | 38% | - | 0 mm | 6.71 m/s, 194° | - | - |
| 1777936632 | 12.78° C | 38% | - | 0 mm | 8.05 m/s, 181° | - | - |
| 1777936535 | 12.78° C | 38% | - | 0 mm | 8.05 m/s, 181° | - | - |
| 1777936237 | 12.78° C | 38% | - | 0 mm | 8.05 m/s, 194° | - | - |
| 1777935936 | 12.78° C | 38% | - | 0 mm | 7.15 m/s, 183° | - | - |
| 1777935638 | 12.78° C | 38% | - | 0 mm | 8.49 m/s, 194° | - | - |
| 1777935341 | 12.78° C | 39% | - | 0 mm | 9.39 m/s, 187° | - | - |
| 1777935044 | 12.78° C | 39% | - | 0 mm | 10.73 m/s, 191° | - | - |
| 1777934745 | 12.22° C | 40% | - | 0 mm | 10.28 m/s, 180° | - | - |
| 1777934448 | 12.22° C | 41% | - | 0 mm | 8.49 m/s, 201° | - | - |
| 1777934208 | 12.22° C | 40% | - | 0 mm | 9.83 m/s, 176° | - | - |
| 1777934147 | 12.22° C | 40% | - | 0 mm | 9.83 m/s, 176° | - | - |
| 1777933849 | 12.22° C | 41% | - | 0 mm | 8.49 m/s, 198° | - | - |
| 1777933614 | 12.22° C | 40% | - | 0 mm | 9.83 m/s, 167° | - | - |
| 1777933552 | 12.22° C | 40% | - | 0 mm | 9.83 m/s, 167° | - | - |
| 1777933299 | 12.22° C | 39% | - | 0 mm | 9.39 m/s, 190° | - | - |
| 1777933254 | 12.22° C | 39% | - | 0 mm | 9.39 m/s, 190° | - | - |
| 1777932956 | 12.78° C | 37% | - | 0 mm | 11.18 m/s, 204° | - | - |
* Rain latest hour (hover to see other rain measurements)
** Current wind speed in m/s (hover to see current wind gust speed)